Weather Roundup
Issued by NWS Chicago, IL

Home | Current Version | Previous Version | Text Only | Print | Product List | Glossary Off
Versions: 1 2 3 4 5 6 7 8 9 10 11 12 13 14 15 16 17 18 19 20 21 22 23 24 25 26 27 28 29 30 31 32 33 34 35 36 37 38 39 40 41 42 43 44 45 46 47 48 49 50

000
NZUS59 KLOT 211203
HRRLOT

CHICAGO AREA WEATHER ROUNDUP
NATIONAL WEATHER SERVICE CHICAGO/ROMEOVILLE IL
700 AM CDT THU SEP 21 2017

NOTE: "FAIR" INDICATES FEW OR NO CLOUDS BELOW 12,000 FEET WITH NO
SIGNIFICANT WEATHER AND/OR OBSTRUCTIONS TO VISIBILITY.

* THESE STATIONS ARE NOT UNDER NWS QUALITY CONTROL. THEY ALSO MAY NOT
  REPORT WEATHER SUCH AS PRECIPITATION OR FOG.

ILZ005-006-012>014-019>023-211300-
NORTHEAST ILLINOIS

CITY           SKY/WX    TMP DP  RH WIND       PRES   REMARKS
OHARE          CLOUDY    73  67  81 SE3       29.97R
6HR MIN TEMP:  72; 6HR MAX TEMP:  81;

MIDWAY         CLOUDY    75  69  81 S5        29.97R
6HR MIN TEMP:  74; 6HR MAX TEMP:  79;

AURORA         CLOUDY    68  67  96 CALM      29.99R FOG
6HR MIN TEMP:  68; 6HR MAX TEMP:  74;

LANSING*       CLOUDY    70  69  97 CALM      29.99S
JOLIET*        MOCLDY    73  71  94 S3        29.98R
WAUKEGAN       CLOUDY    69  69 100 CALM      29.97R
6HR MIN TEMP:  69; 6HR MAX TEMP:  78;

DUPAGE AIRPORT PTCLDY    69  68  96 SE3       29.98R FOG
6HR MIN TEMP:  68; 6HR MAX TEMP:  79;

WHEELING       CLOUDY    73  70  90 SE3       29.98R
6HR MIN TEMP:  73; 6HR MAX TEMP:  83;

MORRIS*        CLOUDY    69  68  94 S6        29.98R
LEWIS AIRPORT* MOCLDY    69  68  94 S5        29.99R FOG
NORTHERLY ISL    N/A     72  66  81 S3          N/A
$$

WIZ051-052-058>065-066-070>072-211300-
SOUTHEAST WISCONSIN

CITY           SKY/WX    TMP DP  RH WIND       PRES   REMARKS
MILWAUKEE      CLOUDY    73  67  81 W3        29.97S
6HR MIN TEMP:  70; 6HR MAX TEMP:  73;

KENOSHA*       MOCLDY    68  65  90 S3        29.97S
RACINE*        CLOUDY    68  66  93 CALM      29.99R
WAUKESHA       PTCLDY    66  64  94 CALM      29.99S
$$

INZ001>003-010>013-019-020-211300-
NORTHWEST INDIANA

CITY           SKY/WX    TMP DP  RH WIND       PRES   REMARKS
GARY*          MOCLDY    73  70  88 CALM      29.99S
MICHIGAN CITY* NOT AVBL
RENSSELAER*    NOT AVBL
VALPARAISO     PTCLDY    70  68  93 SE5       30.02S FOG
$$

LMZ740>746-211300-
SOUTHERN LAKE MICHIGAN

STATION/POSITION TIME  SKY/WX   TEMP WIND        PRES    VSBY
                                AIR  DIR/SP/G
                 (UTC)          (F)  (DEG/KT/KT) (MB)    (MI)
HARRISON CRIB    1140            74  160/ 10/ 11   N/A
BURNHAM HARBOR   NOT AVBL
CALUMET HARBOR   1130            74  160/  5/  6 1014.5R
BURNS HARBOR     1140            74  180/  8/ 11 1015.9S
MICHIGAN CITY    1140            73  160/  9/ 11   N/A
$$

ABBREVIATIONS USED IN REMARKS
   TC - TEMPERATURE IN CELSIUS
  WCI - WIND CHILL INDEX
   HX - HEAT INDEX
  VSB - VISIBILITY
$$



USA.gov is the U.S. government's official web portal to all federal, state and local government web resources and services.